Location: Detroit
(42.3310°N, 83.0460°W)
Time: 18:58:47
(UTC-04:00)

A-11 Canister half - Pass Details

Date: 11 February 2023
Orbit: 1526 x 1682 km, 47.3° (Epoch: 29 March)

Event Time Altitude Azimuth Distance (km) Brightness Sun altitude
Rises 02:49:56 0° 208° (SSW) 4,713 - -51.2°
Reaches altitude 10° 02:53:14 10° 201° (SSW) 3,716 - -50.7°
Maximum altitude 03:01:42 40° 136° (SE) 2,116 - -49.4°
Exits shadow 03:05:05 31° 95° (E) 2,445 10.2 -48.9°
Drops below altitude 10° 03:10:06 10° 71° (ENE) 3,697 11.5 -48.1°
Sets 03:13:22 0° 64° (ENE) 4,687 12.2 -47.6°
